User: anonymous   Login
Location: Unspecified
(0.0000°N, 0.0000°E)
Time: 19:53:24
(UTC+00:00)
Language:

RAX-2 - Orbit

View from above orbital plane
View from above orbital plane
View from above satellite
View from above satellite

Ground track
Ground track

The orbit data is extracted from the following two-line orbital elements,

1 37853U 11061D   19340.92279497 +.00001002 +00000-0 +61965-4 0  9995
2 37853 101.7197 315.2417 0168982 304.1732 054.3556 15.03785476441745
Epoch (UTC): 06 December 2019 22:08:49
Eccentricity: 0.0168982
inclination: 101.7197°
perigee height: 438 km
apogee height: 672 km
right ascension of ascending node: 315.2417°
argument of perigee: 304.1732°
revolutions per day: 15.03785476
mean anomaly at epoch: 54.3556°
orbit number at epoch: 44174

The dashed part of the orbit path shows where the satellite is in the earth's shadow,  

DLR